Temp
54 53 49 52 55 54 54 51 53 54 54 55 58 59 64 64 63 65 69 70 69 70 76 77 76 77 75 75 74 74 73 73 72 71 71 72 73 72 72 71 68 69 72 73
51 49 56 57 53 51 51 50 49 50 52 54 52 55 62 62 64 67 69 70 70 71 73 72 73 74 74 74 73 72 72 73 71 73 72 74 73 71 71 69 66 66 66 69
50 49 53 53 50 48 47 49 46 48 48 50 52 54 57 64 60 63 65 69 71 72 73 76 74 72 73 71 70 69 71 71 70 69 69 68 67 67 66 65 65 63 63 64
49 49 49 50 49 52 43 50 50 47 48 45 49 44 56 59 59 59 63 67 69 70 70 70 71 72 72 70 70 68 68 68 68 67 67 67 69 69 69 66 62 61 60 62
44 45 45 43 48 52 47 51 50 48 47 44 45 43 53 49 54 60 66 67 68 68 67 68 69 68 70 70 67 66 66 66 65 64 65 65 65 66 64 62 58 58 57 58
45 49 49 49 48 51 50 47 45 45 44 35 45 44 50 54 56 62 61 62 61 63 63 64 66 63 64 64 62 63 62 63 62 62 62 63 64 62 59 58 57 57 57 57
43 43 47 50 45 48 48 46 33 31 30 33 40 39 51 56 57 58 61 59 61 62 62 64 64 64 62 58 58 59 59 59 59 59 60 61 63 62 61 59 58 57 56 55
36 32 43 49 48 43 45 47 38 29 31 38 36 35 50 55 59 58 58 57 58 61 62 61 61 60 59 56 56 57 55 57 56 56 57 58 59 60 60 59 59 58 57 56
37 37 46 48 49 50 43 40 48 35 27 33 41 45 51 53 55 59 58 57 60 61 61 60 60 58 57 55 55 55 56 55 55 55 55 55 56 56 57 56 56 56 54 53
43 35 42 46 49 49 48 50 37 37 28 28 38 38 46 51 55 58 57 58 59 60 59 59 59 57 56 56 56 55 56 55 55 54 54 54 54 55 55 54 52 52 52 51
45 42 36 44 42 42 42 41 42 43 38 33 33 43 53 52 53 55 56 58 60 61 61 60 59 57 55 54 55 55 55 54 53 53 53 52 52 52 51 51 51 50 49 49
38 36 33 38 43 45 50 46 45 38 30 37 35 41 53 54 55 56 56 56 60 59 61 61 59 57 55 54 54 54 54 53 53 53 51 50 50 49 49 50 49 49 48 48
35 33 30 31 37 41 41 45 47 44 41 34 33 42 50 53 54 55 53 55 58 58 61 61 60 59 57 56 54 54 54 53 52 51 50 49 49 48 48 48 48 47 47 47
41 33 31 31 34 40 37 40 44 43 35 38 39 45 50 52 53 55 56 58 59 60 61 61 60 61 59 56 56 55 54 53 51 49 49 48 48 47 48 47 46 45 46 45
40 31 33 33 34 36 37 38 41 39 42 37 43 44 50 54 55 57 60 61 57 58 60 62 60 60 61 58 56 54 54 53 51 49 48 47 47 46 46 44 43 43 42 42
37 32 34 31 37 35 33 38 39 39 40 42 43 42 54 55 56 53 54 55 54 57 59 59 61 59 56 57 57 55 54 51 49 48 46 46 44 43 42 41 40 40 39 40
33 32 29 28 33 34 29 37 40 43 45 43 38 47 54 52 52 52 54 55 54 56 58 58 59 61 59 56 57 55 54 51 45 46 46 44 42 40 40 39 38 37 38 38
31 30 30 26 26 22 39 44 45 42 45 47 47 50 51 51 54 55 56 54 55 56 56 57 59 60 60 58 56 55 50 46 44 43 43 42 39 39 38 37 36 36 37 36
38 33 24 23 23 30 39 40 39 39 42 45 44 46 48 48 49 51 53 52 51 53 55 57 59 59 59 57 51 48 46 44 42 41 40 40 39 38 36 34 35 36 35 35
35 36 29 21 20 19 36 40 45 46 33 44 44 44 44 46 38 46 52 49 49 50 51 50 49 49 48 51 48 44 43 41 41 40 39 39 38 37 35 36 35 35 35 35
26 27 23 23 22 27 38 41 43 29 35 42 44 43 43 40 45 49 47 48 47 47 46 47 47 45 44 42 41 39 41 39 41 38 36 35 36 35 37 36 35 33 33 32
26 23 23 24 21 18 41 39 36 42 43 43 43 43 41 43 44 44 46 45 44 43 44 43 41 41 41 38 36 36 37 36 34 33 32 32 31 32 33 32 31 31 31 30
25 33 30 30 30 41 42 42 45 43 40 41 41 43 42 40 42 44 43 42 42 41 39 38 36 35 37 34 32 31 34 31 29 28 27 27 27 29 30 30 28 29 30 30
33 37 32 32 39 40 43 42 42 43 41 42 41 41 40 39 40 38 38 38 37 36 34 33 32 32 33 29 28 29 28 27 26 26 25 25 25 26 27 30 30 30 29 28
36 34 29 30 36 39 41 42 42 41 40 38 39 37 38 37 36 36 35 33 34 33 31 30 29 29 30 28 27 27 26 25 25 25 24 25 26 25 26 28 28 28 30 30
34 33 30 30 40 39 40 41 39 38 38 37 32 33 34 32 32 31 30 31 29 28 28 27 27 27 28 28 26 25 23 23 24 23 23 24 24 23 25 23 24 29 29 30
MSLP
1017.61 1017.23 1017.05 1017.35 1017.22 1017.90 1018.09 1018.35 1018.33 1018.46 1018.79 1018.37 1017.43 1016.71 1016.36 1016.89 1016.90 1016.57 1016.31 1016.29 1016.23 1016.05 1015.88 1016.14 1016.53 1016.90 1017.28 1017.62 1018.03 1018.38 1018.74 1018.95 1019.27 1019.56 1019.77 1019.88 1019.82 1020.13 1020.27 1020.47 1020.71 1020.63 1020.25 1020.13
1017.85 1017.10 1017.09 1017.19 1017.82 1018.07 1018.40 1018.61 1018.94 1019.29 1019.32 1018.83 1018.26 1017.17 1016.55 1016.76 1016.40 1016.32 1016.30 1016.11 1015.92 1015.78 1015.62 1016.00 1016.30 1016.53 1016.76 1017.06 1017.49 1017.95 1018.30 1018.61 1018.97 1019.09 1019.26 1019.44 1019.70 1020.10 1020.23 1020.64 1020.81 1020.77 1020.58 1020.12
1017.45 1018.02 1017.81 1017.69 1018.30 1018.67 1019.04 1018.63 1019.18 1019.53 1019.84 1019.77 1018.90 1017.12 1016.43 1015.93 1016.33 1016.28 1016.18 1015.89 1015.47 1015.16 1015.05 1015.09 1015.63 1016.04 1016.37 1016.77 1017.16 1017.58 1017.85 1018.32 1018.77 1019.14 1019.34 1019.63 1019.98 1020.20 1020.36 1020.55 1020.83 1020.97 1020.89 1020.63
1018.51 1018.87 1018.40 1018.44 1018.55 1018.72 1019.34 1019.44 1019.61 1020.14 1020.35 1019.99 1019.73 1016.93 1015.95 1015.89 1015.80 1015.87 1015.45 1015.25 1014.85 1015.03 1015.25 1015.33 1015.54 1015.78 1016.03 1016.41 1016.81 1017.39 1017.66 1018.21 1018.68 1019.13 1019.20 1019.08 1019.06 1019.19 1019.31 1019.97 1020.62 1020.92 1021.15 1021.02
1018.92 1019.14 1018.99 1019.18 1019.10 1019.25 1019.78 1020.07 1020.24 1020.69 1020.73 1020.78 1020.17 1019.06 1016.00 1016.22 1015.61 1015.21 1014.32 1014.27 1014.84 1015.17 1015.38 1015.20 1015.42 1015.72 1015.85 1016.16 1016.64 1017.09 1017.54 1018.03 1018.41 1018.71 1018.89 1018.89 1018.93 1019.08 1019.61 1020.12 1020.61 1021.01 1021.38 1021.48
1019.61 1019.75 1019.45 1019.33 1019.85 1019.80 1020.35 1020.61 1021.24 1021.58 1021.41 1020.84 1019.70 1019.18 1015.19 1015.20 1015.00 1014.28 1014.59 1014.76 1015.22 1015.52 1015.57 1015.57 1015.60 1016.01 1016.10 1016.41 1016.70 1016.94 1017.33 1017.58 1018.07 1018.37 1018.65 1018.70 1018.78 1019.12 1019.53 1020.03 1020.47 1020.97 1021.32 1021.52
1019.92 1019.98 1019.77 1019.68 1019.97 1020.59 1020.25 1020.20 1021.39 1022.10 1022.01 1020.35 1020.19 1019.44 1015.03 1015.24 1014.92 1014.81 1014.88 1015.37 1015.45 1015.58 1015.66 1015.61 1015.69 1015.93 1016.15 1016.61 1016.81 1016.90 1017.05 1017.39 1018.08 1018.44 1018.53 1018.59 1018.61 1018.84 1019.09 1019.63 1020.08 1020.67 1021.16 1021.51
1019.20 1020.19 1019.72 1019.71 1019.44 1019.58 1020.13 1019.72 1019.95 1020.52 1021.17 1020.41 1020.91 1018.27 1015.39 1015.48 1015.21 1015.14 1015.46 1015.73 1015.70 1015.63 1015.59 1015.62 1015.78 1016.03 1016.26 1016.57 1016.86 1017.14 1017.49 1017.75 1018.26 1018.53 1018.59 1018.69 1018.73 1018.81 1019.04 1019.43 1019.84 1020.25 1020.69 1021.15
1018.91 1019.27 1019.56 1019.66 1019.59 1019.54 1020.24 1020.17 1020.28 1020.87 1022.07 1021.11 1019.12 1017.47 1016.09 1015.49 1014.87 1014.73 1015.07 1015.41 1015.45 1015.53 1015.56 1015.62 1015.75 1016.04 1016.37 1016.66 1016.97 1017.14 1017.41 1017.75 1018.01 1018.21 1018.51 1018.67 1018.67 1018.82 1019.13 1019.51 1019.95 1020.42 1020.79 1021.15
1019.04 1019.33 1020.17 1020.01 1019.89 1019.90 1019.34 1019.64 1020.43 1020.79 1020.79 1020.03 1018.14 1017.12 1015.38 1015.10 1014.54 1014.57 1014.82 1015.00 1015.19 1015.44 1015.58 1015.67 1015.81 1016.11 1016.38 1016.60 1016.88 1017.18 1017.28 1017.41 1017.80 1018.22 1018.46 1018.62 1018.78 1019.02 1019.30 1019.67 1020.02 1020.48 1020.88 1021.25
1019.82 1019.70 1020.92 1020.52 1019.92 1019.46 1019.89 1019.68 1019.81 1019.85 1019.85 1018.96 1017.79 1015.65 1015.17 1014.76 1014.75 1014.77 1014.94 1015.05 1015.20 1015.17 1015.34 1015.57 1015.72 1016.02 1016.43 1016.76 1017.00 1017.28 1017.58 1017.74 1018.06 1018.38 1018.60 1018.85 1019.15 1019.42 1019.64 1019.79 1020.13 1020.55 1021.02 1021.32
1021.53 1021.13 1020.97 1020.61 1020.57 1020.37 1019.44 1019.26 1019.23 1018.99 1019.68 1019.29 1018.29 1015.51 1015.02 1015.13 1015.17 1015.19 1015.28 1015.49 1015.43 1015.36 1015.37 1015.44 1015.73 1016.00 1016.39 1016.57 1016.91 1017.02 1017.22 1017.43 1017.76 1018.26 1018.67 1018.94 1019.24 1019.61 1019.81 1019.92 1020.19 1020.56 1020.88 1021.22
1022.21 1021.76 1021.65 1021.65 1021.60 1020.90 1019.95 1019.49 1019.05 1019.08 1019.21 1018.20 1017.65 1015.26 1015.50 1015.59 1015.61 1015.59 1015.72 1015.61 1015.46 1015.44 1015.29 1015.42 1015.53 1015.68 1015.92 1016.22 1016.56 1016.89 1017.13 1017.22 1017.55 1018.05 1018.47 1018.79 1019.05 1019.24 1019.40 1019.72 1020.17 1020.63 1020.94 1021.15
1022.36 1022.54 1022.21 1021.72 1021.17 1020.58 1019.91 1019.35 1019.18 1019.01 1018.73 1017.15 1016.78 1015.10 1015.42 1015.70 1015.66 1015.77 1015.66 1015.52 1015.48 1015.33 1015.03 1014.98 1014.98 1014.90 1015.17 1015.61 1015.90 1016.20 1016.56 1017.01 1017.36 1017.66 1018.02 1018.27 1018.53 1018.88 1019.18 1019.59 1019.95 1020.36 1020.69 1020.93
1022.73 1022.80 1022.75 1022.51 1022.25 1021.44 1020.53 1019.65 1019.24 1018.88 1018.05 1017.80 1016.29 1015.70 1015.05 1015.44 1015.48 1015.43 1015.17 1015.20 1015.36 1014.97 1014.65 1014.50 1014.38 1014.29 1014.44 1014.73 1015.00 1015.45 1015.63 1016.18 1016.77 1017.04 1017.11 1017.31 1017.94 1018.45 1018.85 1019.34 1019.71 1020.07 1020.52 1020.80
1023.44 1023.14 1023.17 1022.85 1022.50 1021.70 1020.97 1019.93 1019.62 1019.05 1018.51 1018.03 1017.16 1016.21 1015.48 1015.42 1015.40 1015.38 1015.49 1015.41 1014.93 1014.41 1014.17 1013.88 1013.54 1013.55 1013.70 1013.85 1014.06 1014.47 1014.72 1015.03 1015.68 1016.12 1015.94 1016.38 1017.14 1017.85 1018.27 1018.86 1019.40 1019.75 1020.18 1020.51
1023.96 1023.70 1023.60 1023.37 1022.97 1021.98 1020.83 1019.18 1018.71 1018.32 1018.03 1017.76 1017.00 1015.60 1015.52 1014.90 1014.95 1014.95 1014.99 1015.08 1014.48 1014.06 1013.68 1013.38 1012.98 1012.68 1012.66 1012.90 1013.06 1013.38 1013.56 1014.18 1014.80 1015.26 1015.61 1015.72 1016.34 1016.82 1017.27 1017.97 1018.66 1019.09 1019.55 1020.04
1024.50 1024.52 1024.36 1024.28 1023.76 1022.31 1018.98 1018.54 1018.18 1018.02 1017.52 1017.49 1016.94 1016.22 1016.02 1015.74 1015.11 1015.04 1015.55 1015.08 1014.81 1014.57 1013.91 1013.32 1012.89 1012.46 1012.11 1012.20 1012.41 1012.49 1012.88 1013.49 1013.86 1014.25 1014.53 1014.78 1015.43 1015.93 1016.60 1017.26 1017.70 1018.21 1018.69 1019.16
1024.95 1024.76 1025.14 1025.14 1023.99 1021.79 1019.31 1018.99 1018.78 1018.54 1017.59 1017.58 1017.46 1017.45 1017.16 1016.84 1015.95 1014.95 1015.75 1016.36 1016.09 1015.47 1014.66 1013.79 1013.00 1012.44 1012.04 1012.22 1012.59 1012.64 1012.72 1013.01 1013.37 1013.60 1013.75 1014.06 1014.62 1015.21 1015.77 1016.22 1016.64 1017.29 1018.02 1018.64
1025.32 1025.27 1025.27 1025.69 1024.23 1022.00 1020.22 1019.72 1019.30 1019.02 1018.63 1018.45 1018.54 1018.35 1017.90 1017.34 1016.61 1015.35 1015.88 1016.49 1016.10 1015.45 1015.02 1014.45 1013.89 1013.62 1013.37 1012.96 1012.93 1012.72 1012.54 1012.71 1012.48 1012.57 1012.47 1013.08 1013.71 1014.28 1014.73 1015.24 1015.86 1016.50 1017.15 1017.66
1025.28 1025.39 1025.05 1024.91 1023.85 1021.62 1020.23 1019.85 1019.64 1019.86 1018.79 1018.83 1019.09 1019.23 1018.77 1018.26 1017.79 1016.44 1016.45 1016.34 1016.50 1015.76 1015.07 1014.86 1014.40 1014.07 1013.76 1013.61 1013.79 1013.35 1013.02 1012.34 1012.39 1012.64 1012.90 1013.24 1013.61 1014.07 1014.60 1015.26 1015.91 1016.55 1017.17 1017.78
1024.43 1024.52 1024.32 1024.58 1023.66 1021.88 1019.88 1020.18 1019.90 1019.35 1018.81 1019.03 1019.36 1019.25 1018.81 1018.20 1017.53 1017.37 1017.01 1016.93 1016.70 1016.70 1015.25 1015.01 1014.68 1013.96 1013.94 1013.98 1013.74 1013.66 1013.64 1013.47 1013.24 1013.11 1013.19 1013.42 1013.69 1014.03 1014.42 1015.12 1015.74 1016.48 1017.06 1017.75
1024.28 1023.30 1023.21 1023.10 1021.46 1020.22 1019.85 1019.49 1019.31 1019.70 1019.84 1019.65 1019.63 1019.55 1019.37 1018.86 1018.27 1017.82 1017.46 1017.10 1016.78 1016.63 1016.35 1015.78 1015.29 1014.65 1013.57 1013.60 1014.06 1013.60 1013.16 1013.43 1013.59 1013.64 1013.61 1013.82 1014.22 1014.44 1014.54 1015.09 1015.61 1016.28 1016.81 1017.04
1023.23 1022.92 1022.53 1022.14 1020.32 1019.73 1019.35 1019.48 1019.63 1019.78 1019.96 1019.85 1020.06 1019.96 1019.65 1019.25 1018.68 1018.37 1018.03 1017.63 1017.41 1017.19 1016.91 1016.47 1015.82 1014.88 1014.18 1014.22 1013.72 1013.76 1013.70 1013.73 1013.62 1013.91 1013.86 1013.92 1014.23 1014.45 1014.49 1014.65 1015.07 1015.33 1015.66 1016.05
1022.66 1022.57 1021.89 1021.21 1020.28 1019.72 1019.34 1019.29 1019.59 1020.04 1020.29 1020.32 1020.15 1020.08 1019.86 1019.66 1019.15 1018.94 1018.47 1018.05 1017.79 1017.50 1017.16 1016.87 1016.53 1015.88 1014.81 1014.40 1014.01 1014.05 1014.15 1014.00 1013.72 1014.11 1014.02 1014.03 1014.35 1014.40 1014.36 1014.44 1014.40 1014.66 1014.97 1015.08
1021.72 1020.87 1020.99 1019.75 1019.07 1019.44 1019.54 1019.79 1020.26 1020.36 1020.30 1020.44 1020.53 1020.33 1020.16 1020.48 1020.10 1019.72 1019.05 1018.68 1018.47 1017.94 1017.51 1017.09 1016.61 1015.98 1015.19 1014.74 1014.27 1014.10 1014.16 1014.36 1014.19 1013.82 1013.90 1014.12 1014.17 1014.21 1014.13 1014.31 1014.58 1014.89 1015.27 1014.85
Wind_Speed
2 8 13 11 9 2 6 7 10 3 2 3 7 10 10 4 4 7 10 10 10 14 13 13 12 11 11 11 12 11 10 10 8 6 5 5 6 4 4 4 4 5 7 8
5 10 8 12 10 6 8 7 5 1 3 3 1 11 11 8 8 11 14 12 13 13 14 13 13 13 13 13 12 11 12 12 10 7 4 3 3 3 2 2 1 2 4 5
9 3 7 8 10 10 3 9 5 1 2 2 5 11 11 7 8 11 14 17 16 19 19 16 13 14 12 12 12 12 12 12 10 9 5 4 3 2 3 4 2 1 2 1
3 2 9 9 9 8 7 6 8 8 3 6 4 9 9 7 9 9 14 17 20 19 17 16 15 13 13 13 10 11 11 12 9 9 8 9 7 7 4 3 3 3 1 1
5 8 11 5 4 10 2 8 8 3 4 3 5 8 6 1 8 16 20 17 14 12 12 14 13 13 13 11 10 11 11 11 10 10 10 8 8 4 4 4 6 4 3 3
4 1 2 4 4 3 14 12 9 5 2 7 9 8 12 11 12 13 3 2 1 4 6 8 8 7 9 7 8 9 12 11 11 10 10 10 9 8 6 6 5 4 3 3
4 2 2 3 11 8 4 12 4 3 4 7 3 8 16 4 11 11 8 5 9 7 8 9 9 9 7 6 8 10 12 12 9 9 8 9 10 10 10 9 7 7 5 4
8 5 9 6 5 10 12 10 5 8 7 2 2 10 4 7 11 11 6 6 9 9 6 8 9 8 7 6 8 9 9 9 7 7 7 6 8 6 6 8 6 6 5 5
6 4 4 7 4 14 8 9 3 6 2 2 5 6 11 10 16 10 3 3 5 4 6 7 7 6 6 6 8 10 10 9 9 9 7 7 7 8 8 8 6 5 5 5
2 5 1 4 3 1 6 13 5 1 5 7 6 7 10 4 5 3 1 3 3 4 5 5 5 5 5 5 6 9 10 11 8 8 7 7 7 7 6 6 7 7 6 7
1 1 3 6 10 12 6 7 2 3 4 4 4 6 3 5 3 2 1 3 5 4 6 5 5 4 5 4 6 8 8 8 8 8 7 6 6 6 6 7 7 7 7 7
5 3 5 7 2 3 12 9 9 5 5 4 3 7 5 4 3 3 3 3 6 4 5 4 4 4 5 6 8 10 10 10 9 8 8 8 7 7 7 8 8 8 9 8
0 3 5 4 3 1 9 9 15 3 2 10 7 6 3 2 7 6 6 6 6 5 6 5 5 5 5 6 8 9 10 10 10 9 9 10 10 11 10 9 9 8 8 8
5 2 4 3 4 3 8 10 13 14 8 11 13 20 6 3 6 4 4 6 7 7 11 10 9 8 7 8 10 11 11 11 11 11 11 12 12 12 11 10 10 10 9 9
1 3 1 2 4 5 3 3 10 16 20 12 18 21 18 15 16 17 17 17 11 16 17 16 13 12 11 9 10 11 12 12 12 13 14 15 12 12 11 10 10 9 9 8
4 5 1 2 1 2 4 12 6 9 14 16 21 23 20 19 18 14 13 13 15 19 17 17 17 14 13 11 11 10 13 13 14 15 15 12 12 12 11 11 11 10 10 9
2 1 4 3 2 3 6 13 14 12 12 12 15 21 17 20 16 16 15 13 18 19 19 17 18 18 13 13 13 13 13 9 12 13 13 12 12 13 13 12 12 12 12 10
1 1 3 1 1 6 3 1 4 11 10 13 16 17 17 18 19 17 12 15 17 18 20 20 17 17 17 11 12 11 8 10 12 13 13 12 13 13 12 12 13 12 11 13
8 2 3 3 3 8 11 2 4 6 8 4 6 11 14 15 16 14 8 11 15 18 20 20 19 17 16 11 7 8 9 9 9 11 12 12 13 13 13 14 14 12 11 11
9 5 1 3 4 7 6 2 1 1 9 5 9 14 16 14 10 12 15 15 14 13 12 15 16 14 13 13 8 8 9 9 12 12 13 11 12 14 15 14 14 12 12 11
7 5 9 6 4 8 7 8 0 4 3 5 9 12 15 12 11 19 12 12 11 11 12 13 13 13 11 9 9 10 8 10 7 3 5 8 9 10 10 9 9 9 10 9
6 7 5 5 5 10 6 3 6 1 7 13 12 10 13 15 17 15 16 13 12 14 13 10 11 10 8 6 4 8 11 6 4 3 5 6 6 6 7 9 8 9 9 9
5 5 3 9 7 3 5 3 0 5 8 8 8 10 11 13 16 15 12 13 11 10 11 11 9 13 7 3 5 8 5 4 3 3 3 4 4 5 7 9 9 8 9 9
6 7 5 3 8 15 10 6 6 6 7 8 7 10 9 12 13 12 12 12 11 10 10 9 11 11 15 4 5 8 5 3 4 5 5 5 7 8 7 7 8 9 10 10
3 4 3 7 14 15 15 10 7 6 7 7 7 5 9 11 13 11 12 12 10 10 8 7 10 12 14 7 7 5 6 5 5 6 5 6 6 8 8 7 7 8 8 10
9 9 10 10 11 8 8 4 3 12 11 6 3 9 7 6 12 11 12 11 11 12 11 11 11 10 12 10 9 5 5 6 6 6 5 6 6 6 7 7 6 10 11 15
Wind_Direction
150 181 197 183 193 166 151 145 200 201 48 252 240 260 242 203 268 252 245 241 242 244 248 239 241 233 227 226 232 230 215 204 190 186 199 222 229 221 231 243 264 265 250 235
161 215 187 169 149 130 150 169 180 136 31 261 275 265 264 241 252 247 254 248 249 251 251 239 239 232 229 237 228 220 217 204 202 203 202 215 200 217 248 222 234 297 265 248
201 108 147 160 165 165 187 198 175 41 91 84 300 262 251 235 248 255 254 254 255 247 250 249 238 241 240 237 230 224 217 210 206 202 178 164 158 182 194 196 204 15 314 265
214 112 161 174 179 189 197 187 153 138 185 258 340 281 231 250 258 249 254 244 247 250 252 260 262 253 244 244 234 228 215 208 203 196 204 209 215 222 210 183 165 152 95 48
142 172 150 164 198 188 141 162 144 126 202 281 190 265 231 224 258 254 246 245 251 264 267 264 262 260 261 259 235 220 208 201 195 198 212 210 219 219 176 166 161 155 124 86
95 32 160 126 99 143 136 103 73 71 122 249 224 233 261 213 219 244 267 272 285 312 299 276 276 284 275 268 238 211 201 200 196 200 206 215 219 201 182 179 177 171 158 129
138 112 107 140 108 136 195 158 123 181 193 254 143 214 254 289 247 250 286 313 304 303 286 280 281 284 281 250 227 206 199 197 195 202 206 212 218 203 198 184 184 172 170 172
165 184 173 176 182 173 185 183 180 205 205 226 136 233 252 263 273 271 274 271 288 295 303 294 291 284 280 253 228 207 195 191 186 193 204 209 207 200 196 188 181 184 180 165
161 165 180 181 148 154 171 210 84 101 47 252 209 264 253 262 266 262 285 265 269 304 312 306 308 284 268 232 218 203 192 190 188 191 189 194 187 186 187 179 175 174 162 155
131 120 113 156 148 115 202 142 145 176 201 238 220 266 247 227 229 246 57 0 287 255 276 286 287 277 256 243 218 205 200 195 191 188 193 192 189 190 181 172 175 173 162 165
45 4 81 153 212 187 158 183 169 152 201 232 269 245 226 232 232 261 344 335 311 310 317 296 270 273 273 247 214 209 209 203 196 198 194 192 191 188 179 181 175 174 168 175
9 67 165 183 48 305 223 211 187 197 182 247 302 255 167 193 129 143 138 349 318 302 307 319 313 301 254 234 217 210 205 205 203 198 194 197 190 189 193 192 186 181 185 185
37 161 143 167 214 211 215 204 215 184 118 209 209 254 81 250 268 266 293 302 289 276 276 280 273 269 265 247 234 231 226 217 204 196 198 201 204 202 204 201 194 190 188 190
130 50 21 291 20 328 202 199 212 210 221 238 235 266 226 222 293 274 267 272 283 274 282 284 272 263 254 244 235 226 228 222 212 201 205 211 209 206 206 203 196 195 197 195
276 133 138 87 5 329 339 199 211 216 234 240 261 267 276 279 277 277 280 289 297 283 281 279 265 257 251 244 235 232 228 219 214 211 204 215 209 208 204 202 200 196 198 200
357 141 278 121 245 78 315 288 260 251 261 264 269 274 280 286 285 273 271 274 266 271 273 269 267 263 250 239 241 234 231 218 204 215 214 203 196 200 200 201 199 195 196 196
46 119 150 167 322 212 263 231 228 238 222 230 248 261 280 284 271 265 273 273 266 274 276 273 267 268 257 242 234 230 230 211 200 215 218 202 196 198 197 191 195 197 195 192
115 90 8 100 142 235 230 324 270 236 251 235 261 270 288 291 293 293 300 282 289 295 292 284 276 274 270 252 236 233 209 200 206 214 213 200 198 202 190 188 193 194 192 194
212 181 106 200 227 310 286 45 159 206 266 56 296 323 324 337 317 304 44 6 331 318 313 305 297 291 292 284 245 226 218 212 211 215 214 205 199 198 191 197 197 192 187 193
187 208 151 179 216 218 113 116 14 197 270 64 10 338 332 330 316 305 339 335 317 317 316 315 314 305 299 296 276 243 233 218 222 214 213 198 194 196 198 199 195 188 190 190
141 181 207 219 251 284 246 270 30 185 267 31 351 328 320 310 297 306 311 302 300 303 309 312 314 305 301 313 307 280 275 248 262 241 198 196 197 202 205 198 188 180 182 174
178 167 183 187 225 260 194 173 206 321 329 342 331 324 309 305 307 311 312 312 313 310 323 320 310 301 303 310 287 283 285 325 299 234 206 199 188 183 178 177 170 176 174 173
223 207 184 206 218 241 216 273 311 327 306 305 317 316 310 297 295 303 303 302 299 301 306 313 303 306 280 233 260 270 259 299 282 238 190 174 167 177 170 174 171 174 178 179
224 188 228 194 236 254 271 255 259 292 271 278 275 286 282 288 299 301 308 310 313 320 316 317 314 309 304 322 271 252 287 261 217 227 206 186 185 182 177 180 182 183 182 184
224 166 201 263 271 278 276 272 280 271 245 260 276 257 286 295 292 301 304 304 302 303 303 313 304 299 300 305 286 280 283 251 226 236 213 204 210 199 189 198 189 193 195 191
196 220 207 224 230 239 261 271 268 287 288 286 284 307 299 294 299 311 301 306 305 307 312 305 298 294 297 298 290 273 241 239 245 231 219 217 203 193 190 182 179 207 202 195